F4DOU-5 Weather Reports


time (UTC)temp
C
wind
direction
speed
KPH
gust
KPH
rain 1hr
cm
rain 24hr
cm
rain mn
cm
humidity
%
barometer
mb
20260505041006 13 44 3.2 8.0 0.00 5.97 0.79 97 1009.6
20260505040006 13 32 1.6 4.8 0.00 5.97 0.79 97 1009.6
20260505035006 13 0 1.6 4.8 0.03 5.97 0.79 97 1009.8
20260505034006 13 0 1.6 4.8 0.03 5.97 0.79 97 1009.8
20260505033006 13 0 1.6 4.8 0.03 5.97 0.79 97 1009.9
20260505031006 13 32 1.6 4.8 0.05 5.97 0.79 97 1010.1
20260505030006 13 45 3.2 4.8 0.05 5.97 0.79 97 1010.1
20260505025007 13 98 0.0 1.6 0.05 5.97 0.79 97 1010.2
20260505024006 13 98 0.0 3.2 0.05 5.97 0.79 97 1010.3
20260505023006 13 20 1.6 4.8 0.05 5.97 0.79 97 1010.3
20260505022006 13 20 0.0 1.6 0.03 5.94 0.76 97 1010.4
20260505021007 13 20 0.0 1.6 0.00 5.92 0.74 97 1010.4
20260505020006 13 20 0.0 4.8 0.03 5.92 0.74 97 1010.4
20260505015006 13 20 1.6 4.8 0.03 5.92 0.74 97 1010.4
20260505014006 13 312 0.0 3.2 0.03 5.92 0.74 97 1010.5
20260505012006 13 29 0.0 4.8 0.05 5.92 0.74 97 1010.7
20260505011006 13 66 0.0 8.0 0.15 5.92 0.74 97 1010.7
20260505010005 13 29 3.2 8.0 0.18 5.89 0.71 97 1010.7
20260505005005 13 355 1.6 3.2 0.23 5.89 0.71 97 1010.7
20260505004006 12 355 1.6 3.2 0.30 5.89 0.71 97 1010.9
20260505002006 12 212 1.6 3.2 0.30 5.87 0.69 97 1011.2
20260505001005 12 155 0.0 0.0 0.23 5.79 0.61 96 1011.2
20260505000006 12 155 0.0 3.2 0.18 5.71 0.53 96 1011.2
20260504235006 12 155 1.6 1.6 0.15 5.69 0.51 96 1011.3
20260504234006 12 155 0.0 1.6 0.18 5.59 0.43 96 1011.5
20260504233006 12 155 0.0 3.2 0.20 5.59 0.43 96 1011.5
20260504231005 12 91 4.8 14.5 0.33 5.56 0.38 96 1011.5
20260504225005 12 270 0.0 0.0 0.43 5.51 0.33 96 1011.7
20260504224004 12 8 0.0 4.8 0.41 5.41 0.23 96 1011.6
20260504222006 12 103 1.6 9.7 0.33 5.31 0.13 96 1011.7
20260504221005 12 48 4.8 14.5 0.28 5.23 0.05 96 1011.8
20260504220007 12 55 1.6 11.3 0.33 5.18 0.00 96 1011.9
20260504215006 12 61 1.6 4.8 0.33 5.08 5.08 96 1011.9
20260504213006 12 135 1.6 14.5 0.61 4.98 4.98 96 1012.1
20260504210006 12 127 9.7 24.1 0.74 4.85 4.85 96 1012.5
20260504205006 12 105 6.4 19.3 0.79 4.75 4.75 96 1012.6
20260504204005 13 117 8.0 16.1 0.84 4.62 4.62 96 1012.9
20260504203006 13 129 3.2 12.9 0.79 4.37 4.37 96 1012.9
20260504201006 12 93 4.8 11.3 0.76 4.19 4.19 96 1012.8
20260504200005 13 82 4.8 12.9 0.74 4.11 4.11 96 1012.8
20260504194006 13 66 3.2 9.7 0.43 3.78 3.78 96 1012.8
20260504193006 13 56 3.2 12.9 0.23 3.61 3.61 96 1012.8
20260504192005 13 86 4.8 12.9 0.15 3.53 3.53 96 1012.7
20260504191006 13 98 3.2 16.1 0.08 3.43 3.43 96 1012.7
20260504190006 13 99 4.8 16.1 0.03 3.38 3.38 96 1012.5
20260504185006 13 89 3.2 11.3 0.03 3.35 3.35 96 1012.4
20260504183006 13 46 4.8 8.0 0.05 3.35 3.35 97 1012.4
20260504182006 13 66 3.2 8.0 0.08 3.35 3.35 97 1012.5
20260504181006 13 18 1.6 9.7 0.10 3.35 3.35 97 1012.6
20260504175006 13 39 3.2 9.7 0.08 3.33 3.33 97 1012.6
20260504173006 13 40 1.6 4.8 0.05 3.30 3.30 97 1013.0
20260504172006 13 1 3.2 8.0 0.05 3.28 3.28 97 1013.0
20260504171005 13 37 4.8 8.0 0.03 3.25 3.25 97 1013.2
20260504151006 13 26 3.2 14.5 0.03 3.23 3.23 96 1013.7
20260504141005 13 340 8.0 19.3 0.00 3.20 3.20 96 1014.0
20260504082006 12 81 4.8 19.3 0.43 1.93 1.93 94 1014.8
20260504081005 12 88 8.0 24.1 0.64 1.88 1.88 94 1014.7
20260504050005 12 202 1.6 4.8 0.15 0.15 0.15 86 1015.4